DAL3716 KLAX-KSAN

Flight info

Callsign DAL3716
Flight time 0h 27m
Altitude 13000
Route LAXX1 MZB
Aircraft A320/M-SDE3FGHIRWY/LB1

Departure

Time 2026-05-06 23:12
Airport Los Angeles International Airport (KLAX)

Arrival

Time 2026-05-06 23:39
Airport San Diego International Airport (KSAN)
Time Latitude Longitude Altitude Speed Heading
2026-05-06 22:37 33.94095 -118.40382 95 ft 0 kts 259°
2026-05-06 22:51 33.94096 -118.40372 93 ft 4 kts 259°
2026-05-06 22:52 33.94100 -118.40346 94 ft 3 kts 258°
2026-05-06 22:52 33.94109 -118.40326 93 ft 4 kts 182°
2026-05-06 22:52 33.94106 -118.40325 93 ft 4 kts 173°
2026-05-06 22:52 33.94079 -118.40321 94 ft 4 kts 173°
2026-05-06 22:53 33.94052 -118.40317 94 ft 4 kts 173°
2026-05-06 22:53 33.94030 -118.40314 93 ft 1 kts 173°
2026-05-06 22:53 33.94029 -118.40314 93 ft 0 kts 173°
2026-05-06 23:04 33.94010 -118.40309 91 ft 11 kts 168°
2026-05-06 23:04 33.93917 -118.40293 94 ft 14 kts 172°
2026-05-06 23:04 33.93858 -118.40255 96 ft 8 kts 108°
2026-05-06 23:05 33.93861 -118.40184 96 ft 11 kts 81°
2026-05-06 23:05 33.93872 -118.40065 96 ft 17 kts 83°
2026-05-06 23:05 33.93887 -118.39925 96 ft 16 kts 84°
2026-05-06 23:05 33.93899 -118.39789 97 ft 16 kts 82°
2026-05-06 23:06 33.93913 -118.39660 96 ft 15 kts 83°
2026-05-06 23:06 33.93926 -118.39538 98 ft 14 kts 82°
2026-05-06 23:06 33.93939 -118.39405 95 ft 20 kts 83°
2026-05-06 23:06 33.93958 -118.39223 93 ft 22 kts 84°
2026-05-06 23:07 33.93976 -118.39052 94 ft 20 kts 83°
2026-05-06 23:07 33.93992 -118.38889 94 ft 19 kts 83°
2026-05-06 23:07 33.94008 -118.38739 94 ft 18 kts 82°
2026-05-06 23:07 33.94021 -118.38600 95 ft 16 kts 83°
2026-05-06 23:08 33.94035 -118.38473 97 ft 15 kts 83°
2026-05-06 23:08 33.94047 -118.38353 96 ft 14 kts 83°
2026-05-06 23:08 33.94058 -118.38240 95 ft 14 kts 83°
2026-05-06 23:08 33.94073 -118.38107 93 ft 14 kts 83°
2026-05-06 23:09 33.94076 -118.38080 93 ft 0 kts 83°
2026-05-06 23:09 33.94077 -118.38066 93 ft 6 kts 83°
2026-05-06 23:09 33.94049 -118.38003 93 ft 9 kts 162°
2026-05-06 23:10 33.93993 -118.38007 93 ft 8 kts 221°
2026-05-06 23:10 33.93981 -118.38058 94 ft 0 kts 263°
2026-05-06 23:10 33.93981 -118.38059 94 ft 0 kts 263°
2026-05-06 23:11 33.93978 -118.38080 94 ft 12 kts 263°
2026-05-06 23:11 33.93935 -118.38501 99 ft 87 kts 263°
2026-05-06 23:11 33.93835 -118.39483 98 ft 146 kts 263°
2026-05-06 23:12 33.93714 -118.40777 560 ft 159 kts 263°
2026-05-06 23:12 33.93569 -118.42089 1412 ft 159 kts 262°
2026-05-06 23:12 33.93391 -118.43501 1886 ft 184 kts 261°
2026-05-06 23:12 33.92968 -118.45033 2417 ft 207 kts 236°
2026-05-06 23:13 33.92033 -118.46491 2920 ft 232 kts 233°
2026-05-06 23:13 33.90995 -118.48082 3600 ft 253 kts 232°
2026-05-06 23:13 33.89847 -118.49811 4409 ft 272 kts 232°
2026-05-06 23:13 33.88638 -118.51624 4837 ft 280 kts 232°
2026-05-06 23:14 33.87425 -118.53455 4960 ft 281 kts 233°
2026-05-06 23:14 33.86168 -118.55272 4990 ft 283 kts 224°
2026-05-06 23:14 33.84490 -118.56469 4995 ft 282 kts 197°
2026-05-06 23:14 33.82580 -118.57040 4991 ft 284 kts 192°
2026-05-06 23:15 33.80645 -118.57522 4994 ft 284 kts 191°
2026-05-06 23:15 33.78704 -118.57992 5182 ft 287 kts 191°
2026-05-06 23:15 33.76742 -118.58469 6149 ft 290 kts 191°
2026-05-06 23:15 33.74756 -118.58975 7126 ft 292 kts 191°
2026-05-06 23:16 33.72735 -118.59333 8026 ft 296 kts 175°
2026-05-06 23:16 33.70751 -118.58749 8922 ft 294 kts 149°
2026-05-06 23:16 33.69193 -118.57219 9843 ft 289 kts 122°
2026-05-06 23:16 33.68290 -118.55049 10400 ft 300 kts 104°
2026-05-06 23:17 33.67695 -118.52548 10715 ft 323 kts 101°
2026-05-06 23:17 33.67110 -118.49847 11032 ft 344 kts 101°
2026-05-06 23:17 33.66509 -118.47023 11670 ft 353 kts 101°
2026-05-06 23:17 33.65901 -118.44151 12420 ft 358 kts 101°
2026-05-06 23:18 33.65203 -118.41305 12845 ft 365 kts 110°
2026-05-06 23:18 33.63899 -118.38608 12986 ft 375 kts 120°
2026-05-06 23:18 33.62431 -118.35956 13015 ft 399 kts 120°
2026-05-06 23:18 33.60840 -118.33122 13009 ft 407 kts 121°
2026-05-06 23:19 33.59242 -118.30304 13002 ft 409 kts 121°
2026-05-06 23:19 33.57655 -118.27518 13004 ft 410 kts 121°
2026-05-06 23:19 33.56051 -118.24700 13017 ft 410 kts 121°
2026-05-06 23:19 33.54444 -118.21867 13005 ft 410 kts 121°
2026-05-06 23:20 33.52842 -118.19040 13006 ft 410 kts 121°
2026-05-06 23:20 33.51244 -118.16211 13005 ft 410 kts 121°
2026-05-06 23:20 33.49643 -118.13376 13003 ft 410 kts 121°
2026-05-06 23:20 33.48044 -118.10547 12989 ft 411 kts 121°
2026-05-06 23:21 33.46442 -118.07714 12989 ft 411 kts 121°
2026-05-06 23:21 33.44837 -118.04878 12991 ft 411 kts 121°
2026-05-06 23:21 33.43234 -118.02047 12997 ft 411 kts 121°
2026-05-06 23:21 33.41629 -117.99216 13003 ft 411 kts 121°
2026-05-06 23:22 33.40025 -117.96387 13013 ft 411 kts 121°
2026-05-06 23:22 33.38420 -117.93558 13005 ft 411 kts 121°
2026-05-06 23:22 33.36810 -117.90731 13010 ft 411 kts 121°
2026-05-06 23:22 33.35196 -117.87905 13001 ft 411 kts 121°
2026-05-06 23:23 33.33583 -117.85079 12997 ft 411 kts 121°
2026-05-06 23:23 33.31980 -117.82266 12996 ft 411 kts 121°
2026-05-06 23:23 33.30362 -117.79428 12995 ft 411 kts 121°
2026-05-06 23:23 33.28755 -117.76612 12993 ft 411 kts 121°
2026-05-06 23:24 33.27144 -117.73793 12994 ft 411 kts 121°
2026-05-06 23:24 33.25529 -117.70969 12993 ft 411 kts 121°
2026-05-06 23:24 33.23916 -117.68149 12996 ft 411 kts 121°
2026-05-06 23:24 33.22296 -117.65321 12998 ft 412 kts 122°
2026-05-06 23:25 33.20682 -117.62505 12996 ft 412 kts 121°
2026-05-06 23:25 33.19060 -117.59677 12995 ft 412 kts 122°
2026-05-06 23:25 33.17989 -117.57813 12996 ft 411 kts 122°
2026-05-06 23:25 33.16401 -117.55055 12667 ft 397 kts 122°
2026-05-06 23:26 33.14845 -117.52352 12021 ft 392 kts 121°
2026-05-06 23:26 33.13312 -117.49686 11326 ft 388 kts 121°
2026-05-06 23:26 33.11796 -117.47047 10640 ft 384 kts 121°
2026-05-06 23:26 33.10309 -117.44460 10342 ft 369 kts 121°
2026-05-06 23:27 33.08894 -117.42003 10213 ft 351 kts 121°
2026-05-06 23:27 33.07540 -117.39660 10099 ft 334 kts 121°
2026-05-06 23:27 33.06249 -117.37432 9982 ft 319 kts 122°
2026-05-06 23:27 33.04966 -117.35338 9855 ft 308 kts 128°
2026-05-06 23:28 33.03542 -117.33490 9702 ft 298 kts 130°
2026-05-06 23:28 33.02123 -117.31720 9377 ft 294 kts 131°
2026-05-06 23:28 33.00724 -117.29976 9045 ft 291 kts 131°
2026-05-06 23:28 32.99331 -117.28232 8995 ft 291 kts 131°
2026-05-06 23:29 32.97932 -117.26483 8937 ft 291 kts 131°
2026-05-06 23:29 32.96543 -117.24747 8544 ft 289 kts 131°
2026-05-06 23:29 32.95162 -117.23013 8128 ft 288 kts 130°
2026-05-06 23:29 32.93788 -117.21285 7728 ft 286 kts 130°
2026-05-06 23:30 32.92424 -117.19574 7350 ft 284 kts 130°
2026-05-06 23:30 32.91069 -117.17873 6976 ft 282 kts 131°
2026-05-06 23:30 32.89755 -117.16198 6595 ft 280 kts 131°
2026-05-06 23:30 32.88433 -117.14510 6225 ft 277 kts 131°
2026-05-06 23:31 32.87119 -117.12849 5802 ft 276 kts 131°
2026-05-06 23:31 32.85814 -117.11179 5365 ft 275 kts 131°
2026-05-06 23:31 32.84535 -117.09505 5033 ft 272 kts 131°
2026-05-06 23:31 32.83269 -117.07830 4985 ft 273 kts 130°
2026-05-06 23:32 32.81975 -117.06163 4991 ft 275 kts 134°
2026-05-06 23:32 32.80628 -117.04555 4981 ft 274 kts 130°
2026-05-06 23:32 32.79450 -117.02785 4983 ft 274 kts 126°
2026-05-06 23:32 32.78299 -117.00976 4980 ft 274 kts 126°
2026-05-06 23:33 32.77145 -116.99165 4978 ft 275 kts 126°
2026-05-06 23:33 32.75989 -116.97352 4981 ft 275 kts 126°
2026-05-06 23:33 32.74836 -116.95541 4983 ft 275 kts 126°
2026-05-06 23:33 32.73692 -116.93728 4983 ft 275 kts 126°
2026-05-06 23:34 32.72539 -116.91913 4985 ft 275 kts 126°
2026-05-06 23:34 32.71390 -116.90104 4983 ft 274 kts 126°
2026-05-06 23:34 32.70078 -116.88468 4982 ft 276 kts 146°
2026-05-06 23:34 32.68297 -116.87674 4986 ft 276 kts 174°
2026-05-06 23:35 32.66413 -116.87949 4982 ft 277 kts 202°
2026-05-06 23:35 32.64893 -116.89296 4980 ft 276 kts 236°
2026-05-06 23:35 32.64281 -116.91400 4982 ft 272 kts 270°
2026-05-06 23:35 32.64745 -116.93520 4754 ft 265 kts 304°
2026-05-06 23:36 32.65969 -116.95133 4280 ft 264 kts 317°
2026-05-06 23:36 32.67273 -116.96623 4079 ft 253 kts 316°
2026-05-06 23:36 32.68259 -116.98267 3955 ft 241 kts 295°
2026-05-06 23:36 32.68791 -117.00103 3841 ft 230 kts 286°
2026-05-06 23:37 32.69210 -117.01887 3721 ft 219 kts 287°
2026-05-06 23:37 32.69622 -117.03609 3472 ft 216 kts 287°
2026-05-06 23:37 32.70053 -117.05381 2792 ft 233 kts 287°
2026-05-06 23:37 32.70517 -117.07288 2164 ft 245 kts 286°
2026-05-06 23:38 32.70984 -117.09202 2011 ft 235 kts 286°
2026-05-06 23:38 32.71433 -117.11041 1725 ft 232 kts 287°
2026-05-06 23:38 32.71877 -117.12861 1317 ft 225 kts 287°
2026-05-06 23:38 32.72304 -117.14586 850 ft 208 kts 287°
2026-05-06 23:39 32.72680 -117.16168 524 ft 193 kts 287°
2026-05-06 23:39 32.73043 -117.17681 98 ft 185 kts 286°
2026-05-06 23:39 32.73355 -117.18934 23 ft 90 kts 287°
2026-05-06 23:39 32.73447 -117.19324 21 ft 25 kts 283°
2026-05-06 23:40 32.73430 -117.19469 26 ft 0 kts 247°
2026-05-06 23:40 32.73430 -117.19471 26 ft 2 kts 247°
2026-05-06 23:40 32.73412 -117.19535 24 ft 12 kts 265°
2026-05-06 23:40 32.73415 -117.19632 23 ft 1 kts 282°
2026-05-06 23:41 32.73416 -117.19636 23 ft 2 kts 282°
2026-05-06 23:41 32.73416 -117.19637 23 ft 0 kts 282°
2026-05-06 23:41 32.73416 -117.19638 23 ft 1 kts 282°
2026-05-06 23:41 32.73417 -117.19662 23 ft 5 kts 264°
2026-05-06 23:42 32.73402 -117.19689 25 ft 0 kts 221°
2026-05-06 23:42 32.73335 -117.19720 20 ft 12 kts 194°
2026-05-06 23:42 32.73290 -117.19716 20 ft 0 kts 151°
2026-05-06 23:42 32.73276 -117.19701 21 ft 8 kts 139°
2026-05-06 23:43 32.73272 -117.19698 20 ft 0 kts 136°